Regional Weather Roundup
Issued by NWS Bismarck, ND

Home | Current Version | Previous Version | Text Only | Print | Product List | Glossary On
Versions: 1 2 3 4 5 6 7 8 9 10 11 12 13 14 15 16 17 18 19 20 21 22 23 24 25 26 27 28 29 30 31 32 33 34 35 36 37 38 39 40 41 42 43 44 45 46 47 48 49 50
000
ASUS43 KBIS 111610
RWRBIS

NWR BROADCAST TEXT
NATIONAL WEATHER SERVICE BISMARCK ND
1100 AM CDT FRI JUL 11 2014

NOTE: "FAIR" INDICATES FEW OR NO CLOUDS BELOW 12,000 FEET WITH NO
SIGNIFICANT WEATHER AND/OR OBSTRUCTIONS TO VISIBILITY.


CITY           SKY/WX    TMP DP  RH WIND       PRES   REMARKS
WILLISTON      CLOUDY    70  51  51 N15       30.07R
MINOT          PTSUNNY   71  57  61 NW14G24   30.00R
MINOT AFB      PTSUNNY   70  56  61 NW16      29.99R
BISMARCK       SUNNY     79  63  57 N16G23    29.99R
DICKINSON      MOSUNNY   72  56  57 N9        30.05R
GARRISON         N/A     70  61  73 N8        30.00F
HETTINGER ARPT MOSUNNY   76  61  59 N22       30.04R
JAMESTOWN      MOSUNNY   79  66  64 N10       29.93R
CARRINGTON     FAIR      75  66  73 N8        29.97R
CROSBY         FAIR      63  55  77 NW14G20   30.06S
HARVEY         FAIR      73  61  64 NW6       29.98R
HAZEN          FAIR      68  59  73 NW3       30.02S
LINTON         CLOUDY    75  72  88 N10       29.97R
MANDAN         FAIR      75  64  69 N15G22    30.01R
RUGBY          FAIR      72  59  64 NW10      29.97R
STANLEY        FAIR      64  55  72 N15       30.04F
TIOGA          FAIR      64  55  72 N15G23    30.08S
WATFORD CITY   FAIR      64  54  68 NW12G17   30.06R
$$

CITY           SKY/WX    TMP DP  RH WIND       PRES   REMARKS
GRAND FORKS    MOSUNNY   78  68  71 N9        29.87R
GRAND FORKS AF SUNNY     80  71  76 N13       29.89R
DEVILS LAKE    MOSUNNY   75  55  50 N12       29.94R
FARGO          MOSUNNY   81  72  74 NW7       29.87R
CANDO          FAIR      73  57  56 NW7       29.95S
CAVALIER       FAIR      77  57  50 NW13      29.88S
GRAFTON        FAIR      77  63  61 N12       29.88R
GWINNER        SUNNY     82  70  65 N7        29.91R
LANGDON        FAIR      77  54  44 NW9       29.94R
ROLLA          FAIR      70  57  64 NW13G20   29.97R
WALHALLA       FAIR      77  54  44 NW8         N/A
$$

CITY           SKY/WX    TMP DP  RH WIND       PRES   REMARKS
ABERDEEN       SUNNY     79  70  74 NE7       29.91R
MOBRIDGE       PTSUNNY   79  69  71 N16       29.93R
BUFFALO          N/A     75  60  59 NE18G28   30.01R
RAPID CITY     SUNNY     83  63  50 N9        30.01R
GLASGOW        MOSUNNY   68  55  63 N8        30.10F
SIDNEY         PTSUNNY   68  57  68 N12       30.08F
WOLF POINT     MOSUNNY   71  54  54 N8        30.10R
GLENDIVE       PTSUNNY   73  50  43 NE6       30.07F
MILES CITY     SUNNY     73  54  51 E16G24    30.07R
BAKER          MOSUNNY   77  51  40 N18G26    30.09S
$$

CITY           SKY/WX    TMP DP  RH WIND       PRES   REMARKS
BILLINGS       CLOUDY    69  57  65 NE14      30.14R
GREAT FALLS    CLOUDY    60  47  61 NE10      30.22R
REGINA         PTSUNNY   63  54  72 NW17G25   30.06R
ESTEVAN        PTSUNNY   64  54  68 NW14G20   30.06R
$$



USA.gov is the U.S. government's official web portal to all federal, state and local government web resources and services.